{"data":{"norad_id":61922,"epoch":"2026-05-24T21:23:52.187136Z","epoch_age_seconds":81506,"freshness":"FRESH","line1":"1 61922U 24207L   26144.89157624  .00008607  00000+0  32189-3 0  9990","line2":"2 61922  42.9969 215.0699 0000662 289.9527  70.1253 15.27583301 86332","mean_motion":15.27583301,"eccentricity":6.62e-5,"inclination_deg":42.9969,"raan_deg":215.0699,"arg_perigee_deg":289.9527,"mean_anomaly_deg":70.1253,"bstar":0.00032189,"rev_number":8633,"period_min":94.266545009842,"perigee_km":482.58500181071,"apogee_km":483.49342154114,"semimajor_km":6861.1762116759,"source":"CELESTRAK","updated_at":"2026-05-25T13:38:19.482435Z"}}